This demonstration page uses our WeatherBlox Daily Observations layout. Learn more.

Left ArrowRight Arrow

38.88101, -77.10428

Hourly Observations for September 15, 2022

Temp ( °F °C ) Dew Point ( °F °C ) Humidity (%) Winds ( mph kmh ) Pressure ( in mb ) Visibility ( mi km ) Precip ( " mm )
12:52 am 00:52 Clear 68 20 60 15.6 76 76 N 5 7 30.11 1020 10 16 0.00 0.00
1:52 am 01:52 Clear 66 18.9 59 15 78 78 N 6 9 30.11 1020 10 16 0.00 0.00
2:52 am 02:52 Clear 67 19.4 59 15 76 76 NNW 9 15 30.11 1020 10 16 0.00 0.00
3:52 am 03:52 Clear 67 19.4 59 15 76 76 NNW 10 17 30.12 1020 10 16 0.00 0.00
4:52 am 04:52 Clear 67 19.4 59 15 76 76 NNW 13 20 30.12 1020 10 16 0.00 0.00
5:52 am 05:52 Clear 66 18.9 59 15 78 78 N 9 15 30.14 1021 10 16 0.00 0.00
6:52 am 06:52 Partly Cloudy 66 18.9 59 15 78 78 N 6 9 30.16 1021 10 16 0.00 0.00
7:52 am 07:52 Partly Cloudy 67 19.4 60 15.6 79 79 N 7 11 30.19 1022 10 16 0.00 0.00
8:52 am 08:52 Mostly Sunny 70 21.1 60 15.6 71 71 NNW 14 22 30.19 1022 10 16 0.00 0.00
9:52 am 09:52 Mostly Sunny 74 23.3 62 16.7 66 66 NNW 13 20 30.20 1023 10 16 0.00 0.00
10:52 am 10:52 Mostly Sunny 77 25 62 16.7 60 60 NNW 12 19 30.20 1023 10 16 0.00 0.00
11:52 am 11:52 Partly Cloudy 79 26.1 60 15.6 52 52 NNW 14 22 30.19 1022 10 16 0.00 0.00
12:52 pm 12:52 Mostly Cloudy 81 27.2 61 16.1 51 51 N 12 19 30.18 1022 10 16 0.00 0.00
1:52 pm 13:52 Partly Cloudy 82 27.8 60 15.6 47 47 N 13 20 30.17 1022 10 16 0.00 0.00
2:52 pm 14:52 Mostly Sunny 82 27.8 59 15 46 46 N 9 15 30.15 1021 10 16 0.00 0.00
3:52 pm 15:52 Mostly Cloudy 79 26.1 58 14.4 49 49 NNW 8 13 30.14 1021 10 16 0.00 0.00
4:52 pm 16:52 Partly Cloudy 79 26.1 59 15 50 50 NNW 8 13 30.14 1021 10 16 0.00 0.00
5:52 pm 17:52 Mostly Cloudy 78 25.6 58 14.4 50 50 NE 7 11 30.14 1021 10 16 0.00 0.00
6:52 pm 18:52 Partly Cloudy 76 24.4 56 13.3 50 50 NE 10 17 30.16 1021 10 16 0.00 0.00
7:52 pm 19:52 Mostly Clear 73 22.8 54 12.2 51 51 NE 10 17 30.17 1022 10 16 0.00 0.00
8:52 pm 20:52 Mostly Clear 71 21.7 55 12.8 57 57 E 6 9 30.20 1023 10 16 0.00 0.00
9:52 pm 21:52 Mostly Clear 69 20.6 54 12.2 59 59 E 3 6 30.21 1023 10 16 0.00 0.00
10:52 pm 22:52 Clear 68 20 55 12.8 63 63 ENE 5 7 30.21 1023 10 16 0.00 0.00
11:52 pm 23:52 Clear 67 19.4 54 12.2 63 63 N 5 7 30.22 1023 10 16 0.00 0.00

Powered by AerisWeather